Wind_Speed
56 57 56 55 54 53 52 50 49 46 45 43 41 42 45 49 52 48 44 43 42 42 45 45 43 41 37 35 34 34 35 35 35 36 37 35 33 33 34 34 33 32 34 36 36 38 39 38 37 38 38 36 32 30 34 37 36 37 40 40 40 43 43 40 41 44 44 43 44 45 46 46 46 45 43 41 40 37 34 32 30 28 27 27 27
58 58 58 56 54 53 51 49 48 45 44 42 40 40 43 48 52 50 43 41 41 41 44 46 43 38 34 33 35 36 37 37 36 35 34 30 29 28 30 31 33 35 37 38 38 40 39 36 36 37 34 30 29 31 35 37 36 36 39 43 45 46 44 41 42 44 45 47 48 47 46 45 43 42 40 39 37 35 33 31 29 28 27 27 26
59 59 58 57 55 53 50 48 47 44 42 41 39 37 41 48 52 51 43 38 39 38 40 44 44 39 33 32 35 37 38 37 34 34 32 31 31 33 35 36 37 38 38 39 40 41 38 35 35 35 31 28 28 29 32 33 33 33 36 42 44 45 44 42 42 43 45 46 46 44 41 39 38 37 36 35 34 32 31 30 29 28 26 26 26
60 60 59 58 56 53 49 47 45 43 41 40 38 35 40 47 52 52 44 38 37 35 34 37 41 41 37 36 38 41 41 39 38 39 40 40 40 40 39 38 38 39 40 41 42 41 37 35 35 33 29 28 27 26 27 30 31 32 36 40 39 39 40 39 39 41 43 43 42 39 37 37 37 36 34 33 32 31 30 29 28 27 26 26 26
60 60 60 58 57 54 49 46 43 41 39 38 36 34 38 46 51 53 47 40 37 35 32 31 33 36 37 39 42 44 44 43 42 44 46 45 44 42 41 39 38 39 39 40 40 38 36 35 35 32 29 27 26 25 26 28 30 33 36 37 36 35 36 36 36 38 40 39 38 36 36 36 36 35 32 30 29 28 27 26 26 25 26 27 27
60 61 61 59 57 54 49 45 42 39 37 37 35 34 36 44 50 52 50 44 39 37 35 32 31 32 35 38 41 42 44 44 44 45 46 45 45 44 42 40 37 37 37 37 37 37 37 36 35 32 28 26 24 24 25 26 27 29 31 31 31 31 31 31 31 32 33 33 32 32 32 32 31 30 28 26 24 23 22 22 23 23 24 26 27
60 61 61 60 57 53 49 45 40 36 36 36 34 33 35 41 48 50 49 46 41 39 38 35 33 34 34 37 39 41 44 45 45 45 45 44 45 45 43 40 37 37 37 38 38 39 38 35 32 29 25 24 25 24 24 24 24 24 24 24 25 26 26 28 28 26 26 26 25 26 25 24 22 20 19 19 18 18 18 18 18 19 19 21 23
61 61 61 60 58 53 48 44 39 34 35 35 33 33 35 39 45 47 47 45 43 42 41 37 36 37 38 38 40 40 43 46 47 46 45 45 46 46 43 41 39 39 40 40 41 40 38 34 31 28 25 25 25 24 23 23 23 22 21 22 23 23 24 28 28 25 22 21 21 20 19 18 17 15 15 14 14 15 15 14 15 15 15 17 18
61 62 62 61 58 53 48 43 38 32 33 34 32 32 34 38 43 45 44 44 43 42 43 42 40 40 42 42 39 37 40 45 47 47 48 48 48 47 45 44 43 42 42 42 42 40 38 35 33 32 30 27 25 25 24 24 23 22 21 22 22 22 24 27 27 25 22 20 20 19 17 17 16 15 15 15 15 16 16 16 16 16 17 18 19
62 62 62 61 59 54 48 43 37 31 32 34 32 31 34 38 44 46 45 44 43 40 41 45 46 46 47 45 41 38 40 43 46 48 51 51 52 51 49 47 46 44 43 42 41 39 37 36 35 35 33 29 27 27 26 25 24 23 23 24 24 23 26 27 27 26 24 22 22 22 20 20 19 18 18 18 19 19 19 19 20 20 21 22 23
62 62 63 63 60 55 48 42 37 31 31 34 32 32 35 40 46 50 48 47 46 42 39 43 47 49 51 50 47 44 43 45 47 49 50 50 51 51 50 48 46 44 42 41 40 39 37 36 36 36 34 31 29 29 28 27 26 25 25 26 26 28 30 30 28 29 27 26 27 27 25 24 22 22 22 21 21 22 21 22 22 23 24 25 26
62 63 64 64 61 57 49 43 37 32 30 34 34 33 36 42 48 53 53 51 50 48 45 43 44 47 50 52 53 51 47 48 51 51 50 50 50 49 48 48 45 43 41 41 40 40 39 38 38 37 35 33 32 32 32 31 30 28 27 28 29 31 33 33 33 32 31 30 30 30 29 28 26 26 24 22 22 23 23 23 24 25 26 27 28
63 63 64 64 63 59 52 44 38 33 31 34 36 35 38 43 48 52 54 55 54 52 51 48 46 47 47 50 54 56 54 54 55 54 52 50 49 48 48 48 46 43 43 43 42 42 41 41 41 40 39 37 36 35 35 35 34 33 31 31 31 32 34 36 36 35 33 31 31 32 33 32 31 30 26 24 24 26 26 26 27 27 28 29 31
65 65 65 65 63 60 54 46 39 34 32 35 38 38 39 43 47 50 52 55 56 56 55 52 50 50 50 49 51 54 56 58 59 57 55 52 50 49 48 48 47 45 45 45 45 44 44 43 44 44 42 40 39 38 38 38 38 37 36 35 35 35 35 37 37 37 36 35 35 36 36 35 35 33 30 29 30 30 30 31 31 31 32 33 34
66 66 66 65 63 61 56 49 41 35 34 36 39 40 41 43 47 50 51 53 55 57 58 57 54 53 52 51 50 51 53 56 58 57 56 55 53 51 50 49 48 46 47 48 48 48 47 47 46 46 43 40 39 39 39 41 41 41 40 39 39 38 38 39 40 40 40 39 40 41 40 38 37 35 34 35 35 35 35 35 36 36 37 37 38
68 68 67 66 64 60 57 52 44 37 35 38 41 42 42 44 46 49 51 53 55 56 58 59 58 55 54 54 53 53 55 57 58 57 56 56 55 53 51 50 49 48 50 52 53 52 50 49 49 48 46 43 41 41 42 43 44 44 43 43 42 41 41 42 43 43 43 43 44 45 43 40 39 39 39 39 39 39 39 40 41 42 42 42 43
70 69 68 66 64 60 57 53 48 40 36 39 43 44 44 45 47 49 51 54 56 58 59 60 59 57 56 56 56 57 58 59 58 57 56 54 53 53 52 52 51 52 54 56 57 55 53 52 51 51 50 48 46 45 45 46 46 46 46 45 45 44 44 45 45 46 46 46 47 47 46 44 44 43 43 43 43 42 42 43 44 45 45 46 47
72 71 69 66 62 60 57 55 51 45 39 40 45 47 46 46 47 49 52 54 56 59 61 62 62 60 58 58 59 59 59 59 58 56 55 54 53 53 53 54 55 56 57 59 59 58 56 55 54 54 53 52 50 49 48 48 49 48 48 47 47 46 46 46 47 48 48 48 48 49 49 48 48 48 47 46 46 46 47 47 48 49 49 49 50
74 72 68 65 62 59 57 55 54 49 43 41 46 50 50 48 49 50 52 55 57 58 60 61 62 62 61 61 60 61 61 60 58 57 56 56 56 56 56 57 59 60 60 60 61 61 59 58 57 57 56 54 53 52 51 51 51 51 51 50 50 50 49 49 50 50 51 50 50 50 51 51 51 51 51 50 50 50 51 52 53 53 53 52 53
74 71 67 64 61 60 59 56 55 53 48 43 45 52 55 52 52 52 54 56 58 60 60 60 60 61 62 62 62 62 62 62 62 61 60 59 59 59 60 61 62 63 63 62 62 63 62 62 61 59 57 56 55 54 54 54 55 55 55 54 54 53 52 52 52 53 53 53 53 53 54 54 54 54 54 54 54 54 55 56 57 56 56 56 56
72 68 66 64 62 61 60 59 57 56 54 49 46 52 58 58 56 56 57 58 60 62 63 62 61 61 62 63 64 64 63 63 63 63 62 62 61 62 63 64 65 65 65 65 65 65 65 64 63 61 58 56 56 56 56 56 58 58 57 57 57 57 56 56 55 56 56 56 57 57 57 57 57 57 57 58 58 58 58 59 60 60 59 59 60
69 67 66 65 64 63 62 61 59 58 57 55 50 50 58 63 62 61 61 62 62 64 66 65 64 64 64 65 65 65 65 64 64 64 64 64 63 63 65 66 66 66 67 66 66 66 65 64 63 61 58 58 58 58 57 58 59 60 60 60 60 60 60 59 59 59 59 59 60 60 60 60 59 59 60 60 61 61 61 62 63 63 63 63 63
70 69 67 66 65 64 63 63 62 60 60 59 56 52 55 63 67 66 65 65 66 66 67 68 68 67 67 67 67 67 67 66 66 65 65 65 64 64 65 66 66 65 66 67 66 66 64 63 62 62 61 61 61 61 61 61 61 62 62 63 63 63 63 62 62 62 63 63 62 62 62 61 61 61 62 63 64 64 65 65 66 66 67 67 66
70 70 69 68 66 66 65 64 64 63 62 62 61 58 56 60 68 72 70 69 69 69 69 69 70 70 70 70 70 70 70 69 68 67 66 65 66 66 66 66 67 67 68 69 68 67 64 62 62 63 62 62 62 63 63 62 62 63 64 65 65 65 65 65 65 64 65 65 64 64 63 63 63 63 64 65 66 67 67 68 69 70 70 70 70
71 71 70 69 68 66 65 65 65 65 65 64 63 62 59 59 63 71 76 75 73 73 73 72 72 73 72 72 72 72 72 72 71 69 68 67 67 68 68 68 70 70 70 71 71 69 67 65 64 62 60 59 59 58 59 59 59 60 63 65 65 65 65 65 65 65 66 66 66 66 65 65 66 66 67 67 68 69 70 71 72 73 73 73 73
72 71 70 69 68 67 66 66 65 66 66 66 65 65 64 62 61 66 75 79 78 76 76 75 75 75 75 75 75 75 75 75 75 73 72 70 69 69 69 70 72 72 73 73 72 71 70 69 67 63 60 59 57 56 57 59 60 60 62 64 66 66 66 66 66 67 67 68 68 69 69 69 70 70 70 71 71 72 73 74 74 75 75 76 77
70 69 69 68 68 68 67 67 67 67 68 69 69 68 67 66 65 64 69 77 82 82 80 79 78 78 77 77 78 78 78 78 78 78 77 75 73 72 70 70 72 73 74 74 74 73 72 71 70 68 64 62 61 60 60 62 64 65 65 66 67 69 70 70 70 70 70 71 71 72 73 73 73 73 74 74 75 76 76 77 78 78 79 79 80
69 69 69 69 69 69 69 69 69 70 70 71 72 72 70 69 69 68 67 71 79 85 86 84 82 81 81 80 80 80 80 81 81 82 81 80 78 76 75 73 72 73 74 74 75 76 75 74 73 72 70 68 67 66 65 66 68 69 70 71 71 71 72 73 75 75 75 75 75 75 75 76 76 76 77 78 79 79 80 81 81 82 83 84 84
68 68 68 69 69 70 70 70 71 72 72 72 73 75 74 73 72 72 71 70 73 80 87 90 88 85 84 84 83 83 82 83 83 84 85 85 84 82 80 78 77 76 75 75 75 76 77 77 76 76 75 74 73 71 70 71 73 75 76 77 77 76 76 76 77 78 79 79 79 79 79 79 79 79 80 81 82 83 83 84 85 86 87 88 89
66 66 66 67 68 69 69 70 71 72 73 73 74 75 76 76 75 75 75 75 73 75 81 89 93 92 89 87 87 86 85 85 85 86 86 87 88 87 86 84 82 81 79 78 78 77 77 78 78 78 78 78 78 76 75 76 77 79 81 82 81 81 80 80 81 82 82 83 83 83 83 83 82 82 83 84 86 87 88 88 89 90 91 92 93
61 61 62 62 63 64 65 66 68 69 71 72 73 73 75 76 77 78 78 78 78 77 77 82 90 95 96 93 91 90 89 88 88 88 88 88 89 89 89 89 87 86 84 83 82 81 80 80 80 80 80 81 81 81 80 80 80 81 83 85 85 84 84 84 85 86 86 86 87 87 87 87 87 87 87 88 89 91 92 93 93 94 95 96 96
56 56 56 57 58 59 60 61 62 63 65 67 69 70 72 73 75 78 79 80 80 80 79 79 83 90 97 99 97 95 93 92 91 90 90 90 90 90 90 90 90 90 89 87 85 84 84 83 83 83 83 83 84 85 85 85 85 86 87 88 88 88 87 88 88 89 89 90 91 91 91 91 91 91 92 92 93 93 94 95 97 97 98 99 100
52 53 53 53 54 54 55 56 57 58 59 60 62 64 66 68 71 74 77 79 80 81 82 81 81 84 90 97 101 101 99 97 95 93 92 91 92 92 92 91 91 90 91 91 89 88 87 87 87 87 87 87 87 88 88 88 89 90 91 91 91 91 91 91 92 92 93 93 94 94 94 94 94 94 95 96 97 97 97 98 99 100 101 101 102
51 51 51 51 51 51 52 53 54 55 56 57 58 59 60 62 65 67 71 75 78 80 81 82 82 83 84 89 97 102 104 103 101 99 96 94 93 93 94 94 94 93 92 92 92 91 91 90 90 90 91 91 91 91 91 91 91 92 93 94 94 95 95 95 96 96 96 97 97 97 98 98 98 98 99 99 100 100 100 101 102 102 103 103 103
51 51 51 50 50 50 50 50 51 52 53 54 55 56 57 58 59 61 64 68 72 75 78 80 81 82 83 84 88 95 102 106 106 105 103 100 97 95 95 95 96 97 96 95 94 94 93 93 93 93 94 94 95 95 95 95 95 96 96 97 98 99 99 100 100 100 100 100 100 100 101 101 102 102 102 102 103 103 103 104 104 104 104 104 104
51 50 50 50 50 50 49 49 49 49 50 51 52 54 55 56 56 57 59 62 65 69 73 75 78 80 81 82 84 87 93 101 106 108 108 106 104 101 99 97 96 97 98 99 99 98 97 96 96 96 97 97 98 98 99 99 99 100 101 101 102 103 103 104 104 104 103 103 103 103 104 104 104 105 105 106 106 106 106 106 106 106 106 106 106
49 49 48 48 48 48 49 49 48 48 48 48 50 51 52 53 55 55 56 58 61 63 67 70 73 76 77 79 81 82 86 91 98 104 108 109 109 107 105 102 100 99 98 99 101 101 101 101 100 100 100 100 100 101 102 103 103 104 104 105 106 106 107 107 107 106 107 107 107 106 106 106 107 107 107 108 108 108 108 108 108 107 107 108 108
45 45 46 46 46 46 47 47 47 47 47 46 47 49 50 51 52 54 55 55 57 59 62 65 68 71 73 75 77 79 81 84 88 94 101 106 109 110 109 108 106 104 102 101 101 102 103 103 104 104 104 104 103 104 104 105 106 106 107 108 108 109 109 109 109 109 109 109 109 108 108 108 108 108 109 109 109 109 109 109 109 109 109 109 109
41 42 43 43 44 44 44 44 45 45 45 45 45 46 48 49 50 51 53 54 55 56 58 61 63 66 69 72 74 76 78 80 82 86 91 96 102 107 109 110 110 110 108 106 105 104 103 103 104 105 106 107 107 108 108 108 108 108 109 109 110 110 111 111 111 111 110 110 110 110 109 109 109 110 110 110 110 110 110 111 111 111 111 111 111
40 40 41 41 42 43 43 43 42 43 43 43 43 44 46 47 48 49 50 52 53 55 56 57 59 62 65 68 71 73 75 76 78 81 84 88 93 98 103 107 109 110 111 110 110 109 108 106 105 105 105 106 107 108 109 110 110 110 109 110 110 111 111 112 112 112 111 111 111 111 111 111 111 111 111 112 112 112 112 112 112 112 112 112 112
41 41 41 41 41 42 42 42 42 41 41 41 41 41 43 45 46 47 48 50 52 53 54 55 57 59 61 64 67 70 73 74 75 78 80 83 86 89 94 99 103 106 108 110 110 111 111 111 110 109 108 108 107 108 109 109 110 110 110 110 111 111 111 112 112 112 112 113 113 112 113 113 113 113 113 113 113 113 113 113 113 113 113 113 113
41 41 41 41 41 41 42 42 42 41 41 40 40 39 40 42 44 45 46 47 49 51 53 54 55 57 58 61 63 66 69 71 73 75 77 80 82 84 87 91 95 99 103 105 107 108 110 111 112 112 112 111 111 110 110 110 110 111 111 112 112 112 112 112 112 112 113 113 113 113 113 113 113 113 113 113 113 113 113 113 113 113 113 113 113
40 40 40 40 40 40 41 42 42 42 41 41 40 39 38 39 41 42 43 45 46 48 50 52 54 55 57 58 60 63 65 68 70 72 75 77 80 82 84 86 89 93 96 99 101 103 105 106 107 109 110 111 111 112 112 112 112 112 112 112 113 113 113 114 114 114 114 114 114 114 114 114 114 114 114 114 114 114 113 113 113 113 113 113 113
38 39 39 39 39 39 39 40 41 42 42 41 40 39 38 38 38 38 40 42 44 45 47 49 52 54 55 57 59 60 62 65 67 69 71 74 77 80 82 84 86 88 91 93 96 98 100 102 103 104 105 106 107 108 109 110 111 111 111 112 112 113 113 113 113 113 114 114 114 114 114 114 114 114 114 114 114 114 114 114 113 113 113 113 113
38 38 38 39 38 38 38 38 39 40 41 41 40 40 39 39 37 36 37 39 41 43 44 46 49 51 53 55 57 59 60 62 64 66 68 70 73 76 79 82 84 87 89 90 92 94 96 98 99 101 102 103 104 104 105 106 107 107 108 109 110 110 111 111 112 112 112 112 113 113 113 113 113 113 113 113 113 113 113 113 113 113 113 113 113
37 38 38 38 38 38 37 37 37 38 39 39 39 39 39 39 38 37 36 36 38 40 41 43 46 48 50 52 55 57 59 60 62 64 66 68 70 72 74 77 81 84 86 89 90 92 93 95 96 98 99 100 101 102 103 103 104 105 105 106 107 108 109 109 110 110 111 111 112 112 112 112 112 112 112 113 113 113 113 113 113 113 112 112 112
37 37 37 38 38 38 38 37 36 36 37 37 38 38 38 38 38 37 36 36 36 37 38 40 42 45 47 49 51 53 56 58 60 62 64 66 68 70 71 73 76 79 82 84 87 90 92 93 95 96 97 98 99 100 101 102 102 103 103 104 105 106 107 108 109 109 110 110 111 111 111 111 111 111 111 112 112 112 112 112 112 111 111 111 110
37 37 37 37 38 38 38 38 37 36 36 36 36 36 37 37 37 37 36 36 36 36 35 36 38 41 44 46 48 50 52 55 57 59 61 63 65 67 69 70 72 74 77 79 82 84 87 90 92 94 96 97 98 99 100 100 101 101 102 102 102 103 104 105 106 107 108 109 109 110 110 110 110 110 110 110 110 110 110 110 110 109 109 109 109
38 38 37 37 37 38 38 38 38 37 36 35 35 35 35 36 36 36 35 36 36 36 35 34 34 36 39 42 45 47 49 51 53 56 58 60 62 64 65 67 69 71 73 75 77 79 82 84 86 89 91 93 95 97 98 99 100 101 101 101 101 101 102 102 103 104 105 106 106 107 107 108 108 108 108 108 108 108 109 109 108 108 108 108 108
40 39 39 38 38 37 37 38 38 38 37 36 35 34 33 34 34 35 35 34 35 35 35 34 34 34 35 38 41 43 45 48 50 52 54 57 59 61 63 64 66 68 70 72 74 76 78 79 81 83 85 87 89 91 94 96 97 99 100 100 101 101 101 102 102 102 103 103 104 104 105 106 106 107 107 107 107 108 108 108 108 108 109 109 109
41 40 40 39 39 38 38 37 38 38 37 36 35 34 33 32 32 33 33 33 33 34 34 34 33 33 33 35 37 40 42 44 47 49 51 53 55 57 60 62 64 65 67 68 70 72 74 76 77 79 81 82 84 86 88 90 92 94 95 97 98 99 100 100 101 101 102 102 103 103 104 104 105 106 106 107 107 107 108 108 108 108 108 108 107
Wind_Direction
296 297 298 300 301 304 304 300 296 293 287 278 267 255 244 231 220 216 219 224 227 230 229 230 235 241 242 242 243 245 247 255 260 252 241 238 236 233 231 230 234 242 255 267 273 276 280 280 279 283 286 281 272 260 254 253 252 246 239 240 250 256 258 263 269 272 272 272 273 274 276 278 278 279 279 280 280 277 271 266 262 258 254 253 254
295 297 298 300 302 305 304 300 297 294 287 278 268 254 240 229 219 213 217 225 229 232 231 230 234 241 242 240 243 246 247 253 255 242 232 230 228 228 233 240 251 260 268 273 275 277 278 278 283 288 285 274 263 257 253 251 249 247 241 240 245 252 256 260 265 268 270 272 273 274 275 276 277 277 277 277 275 272 267 263 259 255 252 251 252
295 296 299 300 302 305 305 301 298 294 286 277 269 254 237 227 217 211 215 225 230 233 235 233 235 240 241 236 238 241 242 247 246 235 234 240 242 246 252 258 263 268 270 273 274 275 275 279 287 289 280 269 263 259 257 254 250 246 245 246 248 252 258 261 264 268 271 271 272 273 274 276 276 276 275 273 271 267 264 260 256 253 251 251 252
294 297 298 300 303 306 305 301 299 294 285 276 269 254 236 225 215 210 214 222 225 229 235 236 237 241 241 237 235 236 238 241 241 239 244 251 253 256 260 263 266 269 271 272 272 272 273 280 288 285 274 266 262 258 255 252 248 244 245 250 254 258 263 265 267 270 271 271 272 273 275 276 276 275 273 270 268 265 261 258 255 253 252 253 255
295 296 298 299 303 305 304 302 299 293 283 274 267 254 235 223 213 210 213 217 218 223 229 233 236 239 240 238 237 238 238 240 241 242 247 251 253 257 259 261 265 267 268 268 267 268 272 281 288 283 271 264 261 257 252 248 246 246 248 254 260 263 265 267 269 269 271 273 275 276 276 275 274 273 271 268 264 262 261 259 257 256 255 255 256
294 295 297 299 302 305 304 302 300 292 281 273 265 252 235 221 213 210 213 214 214 218 222 225 230 234 237 239 240 239 238 238 241 243 245 249 252 255 256 256 257 259 262 264 265 270 275 281 287 284 272 264 260 256 252 249 247 248 251 255 259 261 264 269 272 272 273 275 277 278 277 275 272 270 267 264 261 258 258 257 256 257 257 258 259
293 294 296 299 302 304 304 302 300 291 279 270 262 249 234 221 213 211 212 213 213 216 216 219 225 229 232 238 240 240 239 238 240 242 243 246 249 252 251 250 252 258 262 266 269 273 276 278 281 280 274 269 263 256 251 248 247 248 249 250 253 258 265 272 274 275 277 279 280 278 275 272 270 268 265 263 261 258 256 257 259 261 264 265 266
292 293 295 299 301 303 303 301 298 289 275 267 258 245 232 220 212 210 210 212 214 217 216 216 223 225 226 230 234 237 240 241 240 240 240 242 246 247 247 248 253 260 264 268 271 272 273 274 273 272 275 277 269 259 251 246 245 245 243 243 248 255 265 271 274 277 281 283 281 275 270 268 267 267 265 264 264 263 264 267 272 274 275 275 274
291 292 295 298 300 302 301 299 297 286 270 262 253 239 227 217 209 206 207 209 214 218 217 216 219 221 221 224 228 233 239 242 241 238 238 240 243 245 247 250 254 259 264 267 269 270 270 268 267 269 275 278 271 260 250 243 240 239 235 236 242 250 259 267 273 277 279 281 277 270 266 268 269 268 270 271 272 273 275 279 282 283 284 285 286
290 292 294 297 299 300 299 297 295 284 266 256 247 233 222 213 205 202 203 208 211 214 217 219 222 222 220 221 224 227 233 240 242 240 240 241 243 245 248 251 255 258 262 264 265 265 265 264 263 266 270 273 270 259 250 244 241 238 236 236 238 241 249 258 265 269 273 279 276 270 268 270 271 271 273 274 275 277 278 280 282 284 286 288 290
289 291 293 296 297 298 297 295 292 282 261 249 241 227 217 210 204 202 203 207 209 210 214 221 226 227 224 222 223 226 232 239 243 242 242 243 244 246 249 252 255 257 259 260 259 258 259 261 262 263 264 267 267 258 250 247 245 244 244 244 242 240 245 253 258 263 272 278 277 274 273 272 273 274 275 276 278 279 280 282 284 286 287 289 290
287 290 292 295 295 296 295 293 290 281 259 244 235 223 214 209 206 205 207 208 210 212 216 220 224 227 227 225 225 227 231 237 240 241 241 243 244 246 249 250 252 254 255 255 254 255 257 259 261 261 260 263 265 262 255 250 248 249 252 253 251 249 250 254 258 263 273 277 276 278 278 277 278 278 277 279 281 283 285 286 288 289 290 290 289
286 289 292 293 294 294 293 291 288 280 259 241 231 221 214 209 208 209 211 212 213 216 219 223 225 226 227 227 226 226 229 234 237 238 238 239 241 245 248 249 251 253 253 251 251 253 256 258 259 259 259 261 263 263 261 255 250 252 255 257 258 257 256 258 260 264 270 272 274 277 278 278 278 278 278 282 283 284 286 288 289 290 289 289 288
286 289 291 292 292 292 291 289 285 278 261 241 229 221 215 211 209 211 214 216 217 219 221 224 227 227 226 227 228 228 231 234 236 237 237 237 240 245 248 250 251 253 252 250 250 252 254 256 257 258 260 261 261 261 261 257 253 254 256 257 260 261 261 261 262 263 266 268 270 271 272 273 275 276 279 283 283 284 286 288 289 290 288 288 287
286 288 290 290 290 289 288 286 283 276 261 243 229 221 216 214 212 213 215 218 219 221 223 224 226 228 227 226 228 230 232 234 235 237 239 240 242 246 248 250 252 252 249 247 248 251 253 255 257 258 259 258 257 256 256 256 255 255 256 257 258 260 260 260 260 260 262 264 265 268 272 276 277 277 278 279 280 283 286 288 289 289 289 289 288
286 288 289 289 288 286 285 283 281 275 262 245 232 223 218 216 215 215 217 219 220 221 223 224 225 227 228 228 229 231 232 233 235 238 242 244 246 247 247 248 249 248 246 245 246 249 253 254 255 257 257 255 254 252 252 252 253 254 255 256 257 257 257 257 257 258 260 262 264 270 278 281 277 276 276 276 278 281 284 286 287 287 289 289 289
285 286 287 286 285 283 281 280 279 275 263 247 234 226 221 218 218 218 220 222 222 222 223 224 225 226 228 230 231 232 233 235 237 240 242 244 245 246 247 248 248 246 245 245 246 248 251 253 254 255 255 255 254 253 252 251 252 252 254 255 254 254 254 255 255 256 259 261 263 268 275 278 276 275 275 275 277 280 282 284 284 285 287 288 288
284 285 285 283 281 279 278 277 276 273 265 249 236 228 224 222 221 221 222 224 226 225 225 226 226 227 229 231 232 233 233 235 236 238 240 242 243 243 245 247 247 246 246 246 247 249 251 252 253 253 254 254 254 254 253 252 253 253 254 254 254 254 254 254 254 255 258 260 262 265 268 272 274 275 276 276 276 277 279 282 283 284 286 287 287
283 283 282 280 278 276 274 273 272 271 266 253 238 229 226 225 224 224 225 226 228 229 229 229 229 230 231 232 232 233 233 234 235 237 239 241 242 242 243 244 245 245 245 245 247 248 250 252 253 253 253 253 253 253 252 251 252 253 253 254 255 255 255 255 255 256 257 259 262 264 266 269 271 274 276 277 276 276 277 279 281 282 284 285 286
282 281 279 277 275 273 272 270 269 267 265 258 243 231 226 225 225 226 226 227 229 230 230 231 231 231 231 232 232 233 234 235 237 239 240 241 241 241 241 242 242 243 244 245 246 248 249 251 252 252 252 252 252 252 251 250 251 252 252 253 255 256 256 257 257 257 258 259 261 263 265 267 269 271 273 275 275 276 277 278 280 282 284 286 287
279 277 276 275 273 271 270 268 266 264 263 260 250 236 228 226 226 226 226 228 229 230 231 231 230 230 230 231 231 232 233 235 237 239 240 239 239 239 240 241 242 243 244 245 245 247 248 250 251 251 251 251 251 250 249 249 250 252 252 253 255 256 257 258 258 259 260 260 261 262 263 265 266 268 270 272 274 275 277 279 281 284 285 286 288
276 275 274 273 272 270 268 266 264 262 260 259 255 244 232 227 225 225 226 227 228 230 231 231 230 230 229 230 230 231 232 234 235 237 238 238 238 238 240 241 242 243 244 245 246 246 247 248 250 250 249 249 249 249 249 249 251 252 253 254 255 256 258 259 260 260 261 261 262 263 263 264 265 267 269 271 273 275 277 279 282 284 285 286 287
275 274 273 271 270 268 266 265 263 260 258 257 256 251 240 231 226 225 226 226 227 229 232 232 231 230 229 230 230 231 231 232 234 235 236 237 237 237 238 240 241 241 242 243 244 245 246 247 248 249 248 248 249 249 250 251 252 254 255 256 256 258 259 260 261 261 261 261 262 262 263 264 266 268 270 271 273 275 277 279 281 284 285 285 286
274 274 273 271 269 267 264 262 261 259 258 256 255 254 248 239 231 227 226 226 226 227 230 232 233 232 230 230 230 231 231 232 232 233 234 235 236 237 237 238 238 238 239 241 241 242 243 244 245 247 248 249 250 251 252 254 254 256 257 258 259 260 261 262 262 261 261 261 262 262 263 265 266 269 270 272 274 276 278 280 281 283 284 284 286
274 273 271 270 268 266 263 261 260 258 257 256 255 254 253 247 239 231 227 226 227 227 228 230 233 233 232 231 230 231 231 231 231 231 232 233 234 236 237 237 237 237 238 240 241 241 242 242 243 245 247 249 252 254 256 257 257 258 259 260 261 262 263 263 262 262 261 261 262 263 264 266 269 270 272 274 275 277 278 279 281 282 283 284 286
273 272 270 268 267 265 262 260 259 258 257 257 256 255 254 252 247 239 232 229 228 227 227 228 230 233 233 233 231 230 231 231 231 230 230 231 232 234 235 236 237 238 238 240 241 242 242 242 243 243 245 247 251 253 255 257 257 258 259 261 263 264 263 263 262 262 262 262 263 264 266 268 271 273 274 275 276 277 278 280 281 283 284 285 287
272 270 269 267 265 264 262 260 258 257 256 256 256 256 254 253 251 247 240 234 230 229 228 228 229 230 232 233 233 232 230 230 231 231 230 230 231 232 233 235 237 239 240 241 242 243 243 244 244 244 244 245 247 250 251 253 255 256 256 258 261 263 264 264 264 264 264 264 265 266 267 270 272 274 275 276 277 278 280 281 283 284 286 287 288
271 270 268 267 266 264 262 260 258 257 256 255 255 255 254 253 251 250 246 240 235 232 230 229 229 229 230 232 233 234 232 231 230 231 231 231 231 232 233 234 236 238 239 240 242 243 243 244 245 246 245 245 245 246 248 250 252 253 254 255 256 258 260 263 264 266 266 267 267 268 269 270 271 273 274 276 277 279 280 282 283 284 286 287 288
272 270 269 268 266 265 263 261 260 258 256 255 254 254 254 253 251 250 248 246 241 236 233 231 230 230 230 230 231 233 234 233 232 231 231 232 233 234 234 234 235 237 239 240 242 243 245 245 246 247 248 248 247 246 246 248 250 251 253 254 255 256 257 259 262 265 266 268 269 270 270 271 272 273 275 276 278 279 280 281 283 284 285 286 287
273 272 270 269 267 266 264 263 261 260 259 257 255 253 253 252 251 250 248 247 245 241 237 234 232 231 231 230 230 231 232 234 234 234 233 233 233 234 235 236 237 237 239 241 242 244 245 247 247 247 248 249 250 249 247 248 250 252 253 255 256 257 258 259 260 262 264 266 268 269 271 272 273 274 275 276 278 279 280 281 282 283 284 285 286
275 273 272 271 269 268 266 264 263 261 260 259 257 255 254 252 251 250 249 247 246 244 241 237 234 233 232 232 231 231 231 232 233 234 235 235 235 235 236 237 237 238 239 241 243 244 246 247 247 247 247 247 249 250 250 250 251 252 253 255 256 257 258 259 260 261 263 264 266 268 270 272 273 274 275 276 277 279 280 281 282 283 284 285 286
277 275 274 272 271 270 268 267 265 263 261 259 258 257 255 253 252 251 249 248 247 245 243 241 238 235 233 233 232 232 232 231 232 233 234 235 236 237 237 238 238 238 239 240 241 243 245 246 247 247 246 247 248 250 251 252 252 252 253 254 256 257 258 259 260 261 262 264 265 268 270 272 273 274 275 276 277 278 279 280 281 282 283 284 285
278 277 275 274 272 271 270 268 267 266 264 261 259 258 256 254 253 251 250 249 248 247 245 243 241 238 236 234 233 233 233 233 232 232 233 233 234 236 237 238 239 240 240 241 241 241 243 244 246 246 246 247 248 249 250 251 252 253 254 254 255 256 257 258 260 261 263 265 267 269 271 272 273 274 275 276 277 278 278 279 280 281 282 283 284
282 281 279 277 275 273 271 269 268 266 265 264 262 260 258 255 253 251 250 249 248 248 247 245 244 241 239 236 234 234 234 234 234 233 233 233 234 234 235 236 237 239 240 241 242 242 242 242 244 245 246 246 247 248 250 251 252 252 253 255 256 256 257 259 260 262 264 266 268 270 271 272 273 274 274 275 276 277 278 278 279 280 281 282 283
286 285 283 282 279 277 274 271 269 267 265 264 263 262 260 258 255 253 251 249 248 248 247 247 245 244 242 240 238 235 234 234 235 235 234 234 234 235 235 235 236 237 238 239 240 242 242 242 242 243 245 246 247 248 250 251 252 253 254 255 256 257 259 260 261 263 265 266 268 269 270 271 272 273 273 274 275 276 277 278 279 280 281 282 283
288 287 286 284 282 281 278 275 272 269 267 265 264 262 261 260 258 256 253 250 249 248 247 247 246 245 244 242 241 238 236 235 235 235 235 235 235 236 236 236 236 236 237 237 238 240 241 242 242 242 243 245 246 248 250 251 253 254 255 256 257 258 259 261 262 263 264 265 266 267 268 269 270 271 272 273 274 275 276 277 278 279 280 281 282
289 288 287 285 284 282 280 279 276 273 270 267 265 263 261 260 259 258 256 253 250 249 247 247 246 245 245 243 242 241 239 237 236 235 236 236 236 236 237 237 238 238 237 237 238 239 240 241 242 242 243 244 245 246 248 250 252 253 255 256 257 258 259 260 261 262 263 264 265 266 268 269 270 271 272 273 274 275 276 277 278 278 279 280 281
289 289 288 287 285 283 282 280 278 276 274 271 268 265 263 260 259 258 257 255 253 251 249 248 247 246 245 244 243 242 240 239 238 237 236 236 237 237 237 238 238 239 239 239 239 239 240 240 241 242 243 244 245 245 247 248 250 252 253 255 256 257 258 260 261 262 263 264 265 266 267 268 269 270 271 272 273 274 275 276 277 278 279 280 281
294 292 291 289 288 286 284 282 280 278 276 274 271 269 266 263 260 259 257 256 255 253 251 249 248 247 246 245 244 243 242 240 239 239 238 237 237 237 238 238 239 239 239 240 240 241 241 241 241 242 242 244 245 246 246 248 249 251 252 254 255 257 258 259 261 262 263 264 265 266 267 268 268 269 270 271 273 274 275 276 277 278 279 280 280
301 299 296 294 292 290 288 286 284 281 279 276 274 272 269 267 263 260 258 257 255 254 253 251 249 248 247 246 245 245 244 242 241 240 239 239 238 238 238 238 239 240 240 240 241 242 242 243 243 243 244 244 245 246 247 248 249 250 251 253 255 256 258 259 260 261 262 263 264 265 266 267 268 269 270 271 272 273 274 275 276 277 278 279 280
307 305 303 300 298 295 293 291 288 286 283 280 277 274 271 269 267 263 261 259 257 255 254 252 251 249 248 247 246 246 245 244 243 241 240 240 240 240 239 239 239 240 240 241 241 242 243 243 244 245 245 246 246 247 248 248 249 250 251 253 254 255 257 258 259 260 262 263 264 265 266 267 268 269 270 271 272 273 274 275 276 277 278 279 280
311 309 307 305 302 300 298 295 293 290 288 285 281 278 274 271 269 267 264 261 259 257 256 254 252 251 249 248 247 247 246 246 245 243 242 241 241 241 241 240 240 240 240 241 242 242 243 244 244 245 246 247 247 248 249 249 250 251 252 253 254 255 256 257 259 260 261 262 263 265 266 267 268 269 270 271 272 273 274 275 276 277 278 279 280
313 311 310 308 306 304 301 299 297 295 292 290 287 283 279 275 272 270 267 265 262 259 257 256 254 253 251 250 248 247 247 247 246 245 244 243 242 242 242 242 241 241 241 241 242 243 243 244 245 245 246 247 248 249 249 250 251 252 252 253 254 255 256 257 258 260 261 262 263 264 265 266 268 269 270 271 272 273 274 275 276 277 278 279 280
316 314 313 311 309 307 305 302 300 298 296 294 292 289 285 281 277 273 270 268 265 262 259 257 256 254 253 252 250 249 248 248 247 247 246 245 244 243 243 243 243 243 243 243 243 243 244 244 245 246 247 247 248 249 250 251 251 252 253 254 255 255 256 257 258 259 260 262 263 264 265 266 267 268 269 271 272 273 274 275 276 277 278 279 280
320 318 316 314 312 310 308 306 303 301 299 297 295 293 290 288 284 279 274 271 267 265 262 259 257 255 254 253 252 251 250 248 248 248 247 247 246 245 244 244 244 244 244 244 245 245 245 245 246 246 247 248 249 250 250 251 252 253 254 254 255 256 257 258 259 260 260 262 263 264 265 266 267 268 269 270 271 273 274 275 276 277 278 279 280
323 322 320 318 316 314 312 310 307 305 302 300 298 295 293 291 289 286 281 276 271 267 264 262 259 257 255 254 253 252 251 250 249 249 248 248 247 246 246 245 245 245 245 245 246 246 246 247 247 247 248 249 249 250 251 252 252 253 254 255 256 257 257 258 259 260 261 262 263 264 265 266 267 268 269 270 271 272 273 274 275 276 277 278 280
326 325 324 322 320 319 317 314 312 309 306 303 301 298 296 294 291 289 286 282 277 272 268 264 262 260 258 256 254 253 252 251 251 250 249 249 248 248 247 247 246 246 246 246 247 247 247 248 248 249 249 250 250 251 252 252 253 254 255 255 256 257 258 258 259 260 261 262 263 264 265 266 267 268 269 270 271 272 273 274 275 276 277 278 279
330 329 327 326 325 323 321 319 317 314 311 307 304 301 298 296 294 292 289 286 283 279 274 268 264 262 260 258 256 254 253 252 252 251 251 251 250 249 249 248 248 248 248 248 248 248 248 249 249 249 250 250 251 252 253 253 254 255 255 256 257 257 258 259 260 260 261 262 263 264 265 266 267 268 269 270 271 272 273 274 275 276 277 278 279
333 332 331 330 329 327 325 323 321 318 315 312 308 305 301 299 296 293 291 289 286 283 280 275 269 265 262 260 258 256 255 253 252 252 252 252 252 251 251 250 250 249 249 249 249 249 249 250 250 250 251 251 252 252 253 254 255 256 256 257 258 258 259 260 260 261 261 262 263 264 265 266 267 268 269 270 271 272 273 274 275 277 278 279 280
335 335 334 333 331 330 328 326 323 321 318 315 311 308 305 302 299 296 294 291 288 286 283 280 276 270 265 262 260 258 256 255 254 253 252 252 252 252 252 252 252 251 251 250 250 250 250 251 251 251 252 252 252 253 254 254 255 256 257 258 258 259 260 261 261 262 263 263 264 265 266 266 267 269 270 271 272 273 274 275 276 277 278 280 280
337 337 336 335 334 333 331 329 327 324 322 319 315 312 308 305 302 300 297 294 291 288 286 283 280 276 271 266 263 261 258 257 255 255 253 252 252 252 252 252 252 252 252 252 252 252 252 252 252 252 252 253 253 254 254 255 255 256 257 258 259 259 260 261 262 263 264 264 265 266 267 268 268 269 270 271 272 273 275 276 277 277 278 279 280
Height
10616 10614 10613 10613 10612 10609 10606 10602 10598 10595 10593 10591 10591 10591 10593 10599 10605 10611 10616 10618 10620 10622 10625 10629 10632 10635 10640 10643 10644 10645 10645 10645 10646 10646 10646 10647 10647 10649 10653 10655 10657 10658 10659 10660 10661 10661 10662 10662 10661 10661 10659 10657 10656 10655 10654 10654 10655 10656 10658 10660 10660 10659 10660 10659 10655 10652 10650 10649 10648 10647 10647 10646 10645 10644 10642 10641 10641 10640 10640 10639 10639 10639 10639 10640 10640
10610 10608 10607 10606 10605 10604 10600 10596 10592 10589 10586 10584 10584 10585 10587 10592 10599 10607 10613 10616 10618 10620 10623 10627 10630 10633 10636 10639 10641 10641 10641 10641 10641 10641 10642 10643 10644 10646 10649 10651 10652 10653 10654 10654 10655 10655 10656 10656 10656 10654 10653 10653 10653 10652 10650 10650 10651 10651 10653 10655 10655 10654 10656 10655 10652 10649 10646 10645 10644 10643 10642 10641 10640 10639 10637 10636 10636 10635 10635 10635 10635 10635 10635 10636 10636
10604 10602 10600 10599 10598 10597 10595 10590 10586 10583 10580 10578 10578 10579 10582 10587 10594 10603 10610 10613 10616 10618 10621 10625 10628 10630 10633 10635 10636 10636 10635 10636 10638 10638 10639 10639 10640 10642 10643 10645 10646 10647 10648 10648 10649 10650 10651 10651 10650 10649 10648 10648 10649 10649 10647 10646 10647 10648 10649 10649 10650 10651 10651 10651 10649 10646 10643 10640 10639 10638 10638 10637 10635 10634 10633 10632 10631 10631 10631 10631 10631 10631 10632 10632 10633
10597 10595 10594 10592 10592 10591 10589 10585 10581 10578 10575 10573 10573 10574 10577 10581 10589 10598 10605 10608 10612 10615 10618 10622 10625 10627 10629 10631 10631 10630 10631 10633 10634 10634 10635 10635 10635 10636 10638 10639 10640 10641 10642 10643 10644 10645 10645 10645 10644 10643 10643 10643 10644 10644 10644 10643 10644 10645 10645 10645 10646 10647 10646 10645 10645 10642 10638 10636 10635 10634 10633 10632 10631 10629 10629 10628 10627 10627 10627 10627 10627 10628 10628 10629 10629
10590 10588 10587 10586 10586 10585 10583 10580 10576 10573 10570 10569 10568 10570 10573 10577 10585 10593 10599 10602 10607 10611 10615 10619 10622 10624 10624 10625 10625 10626 10628 10629 10629 10630 10630 10630 10631 10632 10633 10634 10635 10636 10637 10638 10639 10639 10639 10640 10639 10638 10638 10638 10639 10639 10639 10639 10641 10642 10642 10642 10643 10642 10641 10640 10639 10637 10634 10631 10630 10629 10628 10627 10626 10625 10624 10624 10623 10623 10623 10623 10624 10624 10624 10624 10625
10585 10582 10581 10580 10580 10579 10577 10575 10572 10568 10566 10565 10565 10566 10569 10574 10581 10588 10593 10597 10602 10607 10612 10616 10618 10619 10620 10620 10621 10623 10624 10625 10625 10625 10626 10626 10626 10627 10628 10629 10630 10631 10632 10633 10634 10634 10634 10635 10634 10634 10633 10634 10634 10635 10635 10635 10637 10638 10638 10639 10639 10637 10636 10634 10633 10632 10630 10627 10625 10624 10623 10622 10622 10621 10621 10620 10620 10620 10620 10620 10620 10620 10620 10620 10621
10579 10577 10575 10574 10574 10574 10572 10570 10567 10564 10561 10561 10562 10563 10566 10571 10578 10584 10589 10593 10598 10602 10607 10612 10614 10616 10618 10618 10618 10619 10619 10619 10619 10619 10620 10621 10621 10621 10622 10623 10624 10626 10627 10627 10628 10629 10629 10630 10630 10629 10629 10629 10630 10630 10631 10631 10632 10633 10635 10635 10634 10632 10630 10629 10628 10627 10625 10623 10622 10620 10619 10619 10618 10618 10618 10617 10617 10617 10617 10617 10617 10617 10617 10617 10617
10573 10571 10569 10568 10568 10568 10567 10565 10563 10560 10558 10557 10558 10560 10563 10567 10573 10579 10585 10589 10593 10597 10602 10607 10609 10611 10614 10614 10612 10614 10613 10612 10613 10614 10615 10615 10615 10616 10617 10617 10619 10620 10621 10622 10622 10623 10625 10625 10625 10625 10625 10625 10625 10626 10626 10627 10628 10629 10631 10631 10630 10628 10625 10622 10621 10623 10622 10620 10619 10618 10617 10617 10616 10616 10616 10615 10615 10615 10615 10615 10615 10615 10615 10615 10614
10566 10564 10563 10562 10562 10562 10561 10560 10559 10557 10554 10553 10555 10556 10559 10563 10569 10575 10580 10583 10587 10590 10594 10598 10600 10602 10606 10606 10607 10610 10609 10606 10607 10609 10609 10609 10610 10610 10611 10612 10613 10614 10615 10616 10617 10618 10619 10620 10620 10621 10621 10622 10621 10621 10622 10623 10624 10625 10627 10627 10626 10625 10621 10617 10616 10618 10618 10617 10616 10616 10615 10615 10614 10614 10614 10613 10613 10613 10613 10613 10612 10612 10612 10611 10611
10559 10557 10556 10555 10555 10555 10555 10555 10554 10553 10551 10550 10551 10553 10555 10559 10564 10569 10573 10575 10578 10582 10585 10589 10591 10594 10598 10601 10603 10605 10604 10602 10602 10602 10602 10603 10604 10605 10606 10606 10608 10609 10610 10610 10611 10612 10614 10615 10615 10616 10617 10617 10618 10618 10618 10619 10620 10620 10622 10622 10621 10621 10618 10613 10613 10613 10613 10614 10614 10613 10613 10612 10612 10612 10611 10611 10610 10609 10609 10609 10609 10609 10608 10608 10607
10552 10550 10549 10548 10548 10549 10549 10549 10549 10549 10548 10546 10547 10548 10551 10554 10558 10562 10565 10567 10570 10574 10577 10580 10583 10586 10591 10595 10597 10599 10599 10598 10596 10595 10595 10597 10598 10599 10600 10601 10602 10603 10604 10605 10606 10607 10608 10609 10610 10611 10611 10612 10613 10613 10613 10614 10615 10616 10617 10617 10617 10616 10613 10610 10609 10609 10610 10611 10610 10609 10609 10609 10609 10609 10608 10607 10607 10606 10606 10605 10605 10605 10604 10604 10603
10545 10543 10542 10541 10541 10542 10543 10544 10543 10543 10543 10543 10543 10544 10546 10549 10552 10555 10558 10560 10563 10566 10568 10571 10574 10578 10583 10587 10589 10591 10592 10590 10586 10586 10588 10590 10591 10593 10594 10595 10596 10597 10598 10599 10600 10601 10602 10603 10604 10605 10606 10607 10607 10608 10609 10609 10610 10610 10611 10612 10612 10611 10609 10607 10605 10605 10606 10607 10606 10605 10605 10605 10604 10604 10603 10603 10603 10602 10602 10601 10601 10600 10600 10599 10598
10538 10537 10536 10534 10534 10535 10536 10538 10538 10538 10538 10539 10538 10539 10540 10543 10546 10549 10551 10554 10557 10558 10560 10563 10566 10569 10573 10577 10579 10581 10581 10578 10577 10578 10581 10583 10585 10587 10588 10589 10590 10591 10593 10594 10595 10596 10597 10598 10599 10599 10600 10601 10602 10603 10604 10604 10604 10605 10605 10606 10606 10606 10605 10603 10602 10602 10602 10602 10601 10600 10600 10600 10599 10599 10598 10598 10598 10597 10597 10597 10596 10596 10595 10595 10594
10531 10530 10529 10528 10528 10527 10529 10531 10532 10532 10532 10533 10534 10534 10535 10537 10540 10542 10545 10547 10550 10551 10553 10556 10557 10559 10563 10567 10570 10572 10571 10570 10570 10572 10574 10576 10578 10580 10582 10583 10584 10586 10587 10589 10590 10591 10591 10592 10593 10593 10594 10595 10596 10597 10598 10598 10599 10599 10599 10600 10599 10600 10600 10599 10599 10598 10598 10597 10596 10595 10595 10595 10594 10594 10593 10593 10592 10592 10592 10592 10591 10591 10590 10590 10588
10524 10523 10522 10521 10521 10521 10521 10523 10525 10526 10526 10527 10529 10529 10529 10531 10533 10535 10538 10540 10543 10545 10546 10548 10549 10551 10555 10559 10562 10563 10564 10564 10565 10566 10568 10570 10572 10573 10575 10576 10578 10580 10582 10583 10584 10585 10585 10586 10586 10587 10588 10588 10589 10591 10592 10592 10593 10593 10594 10594 10594 10594 10594 10594 10594 10593 10592 10592 10590 10588 10589 10590 10589 10589 10589 10588 10587 10586 10586 10586 10585 10585 10584 10583 10582
10516 10515 10515 10514 10513 10513 10514 10515 10518 10519 10520 10521 10522 10523 10524 10525 10527 10529 10531 10533 10536 10538 10539 10541 10543 10545 10549 10552 10554 10555 10555 10557 10558 10560 10562 10563 10565 10567 10568 10570 10572 10574 10575 10577 10578 10578 10579 10580 10580 10580 10581 10582 10583 10584 10585 10586 10587 10587 10588 10588 10588 10589 10588 10588 10588 10587 10586 10585 10583 10581 10583 10584 10584 10584 10583 10582 10581 10581 10580 10580 10579 10578 10577 10577 10575
10508 10507 10507 10506 10505 10505 10506 10507 10509 10512 10513 10514 10515 10517 10518 10519 10520 10522 10524 10526 10528 10530 10532 10534 10536 10539 10542 10545 10546 10547 10548 10550 10552 10554 10556 10557 10559 10560 10561 10563 10565 10567 10568 10570 10570 10571 10572 10573 10573 10573 10574 10574 10575 10576 10577 10579 10580 10580 10581 10582 10582 10582 10582 10582 10581 10581 10580 10579 10577 10576 10576 10577 10577 10577 10577 10576 10575 10575 10575 10574 10573 10572 10571 10570 10568
10499 10499 10499 10498 10497 10497 10498 10499 10501 10504 10506 10507 10508 10509 10511 10512 10514 10515 10517 10519 10521 10523 10525 10527 10530 10533 10536 10537 10539 10540 10542 10543 10545 10548 10549 10550 10552 10553 10554 10556 10558 10559 10561 10562 10563 10564 10565 10565 10566 10566 10566 10567 10568 10569 10570 10571 10572 10573 10574 10574 10574 10574 10575 10575 10575 10574 10574 10573 10572 10571 10570 10570 10570 10569 10569 10570 10570 10569 10568 10567 10566 10565 10564 10564 10562
10489 10490 10490 10489 10489 10489 10490 10491 10492 10494 10498 10499 10500 10501 10503 10504 10506 10507 10509 10511 10513 10515 10517 10520 10522 10525 10527 10529 10530 10532 10534 10536 10538 10540 10541 10543 10545 10546 10547 10549 10550 10552 10553 10555 10556 10556 10557 10558 10558 10558 10558 10560 10560 10561 10562 10563 10564 10565 10566 10567 10567 10567 10567 10567 10567 10567 10567 10567 10566 10565 10563 10563 10563 10562 10562 10562 10563 10563 10562 10560 10559 10558 10557 10557 10555
10480 10480 10480 10480 10480 10480 10481 10482 10483 10485 10488 10490 10492 10493 10494 10496 10497 10499 10501 10503 10504 10506 10509 10511 10514 10517 10519 10521 10522 10524 10526 10528 10530 10531 10533 10535 10537 10539 10540 10541 10542 10544 10545 10547 10548 10549 10549 10550 10549 10549 10551 10552 10553 10554 10554 10555 10556 10557 10558 10559 10559 10559 10559 10559 10559 10559 10559 10559 10559 10558 10556 10556 10555 10555 10555 10555 10554 10554 10554 10552 10551 10550 10550 10549 10547
10470 10470 10470 10470 10471 10471 10472 10473 10474 10475 10477 10480 10483 10484 10485 10487 10489 10490 10492 10494 10495 10497 10499 10502 10505 10507 10510 10512 10514 10516 10518 10520 10521 10523 10525 10527 10530 10531 10531 10532 10534 10536 10537 10539 10540 10540 10541 10541 10540 10541 10544 10545 10545 10546 10547 10547 10548 10549 10550 10551 10551 10551 10551 10551 10551 10551 10551 10551 10550 10550 10549 10549 10548 10547 10547 10546 10546 10546 10545 10544 10543 10542 10542 10541 10539
10460 10461 10461 10461 10461 10461 10462 10463 10464 10466 10467 10469 10472 10475 10476 10477 10479 10481 10482 10484 10486 10488 10490 10492 10495 10498 10500 10502 10504 10506 10509 10511 10513 10514 10516 10519 10521 10523 10523 10524 10526 10528 10528 10529 10530 10531 10532 10533 10532 10534 10537 10538 10538 10538 10539 10539 10540 10540 10541 10542 10542 10542 10543 10543 10543 10543 10543 10542 10542 10542 10541 10541 10541 10540 10539 10538 10538 10537 10536 10536 10535 10534 10533 10532 10531
10450 10450 10451 10451 10451 10451 10452 10452 10454 10455 10457 10458 10461 10464 10466 10467 10469 10470 10472 10474 10477 10479 10480 10482 10485 10487 10490 10493 10495 10497 10499 10501 10503 10505 10507 10510 10512 10514 10515 10516 10518 10519 10519 10519 10520 10521 10524 10526 10525 10526 10529 10529 10529 10530 10530 10531 10531 10532 10532 10533 10533 10534 10534 10534 10534 10534 10534 10534 10534 10534 10534 10534 10533 10533 10532 10531 10530 10529 10528 10527 10526 10525 10524 10523 10522
10440 10439 10439 10440 10440 10440 10441 10442 10443 10444 10446 10448 10450 10452 10455 10457 10459 10460 10462 10464 10466 10469 10471 10473 10475 10477 10480 10483 10485 10488 10490 10492 10494 10496 10498 10500 10501 10504 10506 10507 10508 10509 10508 10508 10510 10512 10515 10517 10517 10517 10519 10520 10520 10521 10521 10522 10523 10524 10524 10524 10524 10524 10524 10524 10524 10525 10525 10525 10525 10525 10526 10526 10525 10525 10525 10524 10523 10522 10520 10519 10518 10517 10516 10514 10512
10429 10428 10427 10427 10428 10429 10430 10431 10432 10433 10434 10436 10438 10440 10443 10446 10448 10450 10451 10453 10455 10458 10460 10462 10464 10467 10469 10472 10475 10478 10480 10482 10484 10487 10489 10491 10492 10494 10496 10497 10498 10499 10499 10499 10501 10504 10506 10508 10508 10509 10510 10511 10511 10512 10512 10513 10515 10515 10514 10514 10514 10514 10514 10514 10514 10515 10515 10515 10515 10516 10516 10516 10517 10517 10516 10515 10515 10514 10513 10511 10510 10508 10506 10505 10502
10417 10416 10415 10415 10416 10417 10418 10419 10421 10422 10423 10424 10426 10428 10431 10434 10436 10439 10441 10443 10445 10447 10449 10452 10454 10456 10458 10461 10464 10467 10469 10472 10475 10477 10479 10481 10482 10484 10487 10488 10488 10490 10491 10491 10493 10495 10498 10499 10500 10500 10502 10503 10504 10504 10504 10504 10506 10506 10506 10505 10504 10504 10504 10504 10504 10504 10505 10506 10506 10506 10507 10507 10507 10507 10507 10506 10506 10504 10503 10502 10500 10498 10496 10494 10492
10404 10403 10403 10403 10403 10404 10405 10407 10409 10410 10411 10412 10413 10415 10418 10421 10424 10427 10430 10432 10434 10436 10438 10440 10443 10445 10447 10450 10453 10455 10458 10461 10464 10466 10468 10470 10472 10474 10476 10478 10479 10480 10482 10483 10484 10487 10489 10490 10491 10492 10493 10494 10495 10496 10497 10496 10497 10497 10497 10497 10496 10495 10494 10493 10493 10493 10494 10495 10496 10497 10497 10497 10498 10497 10496 10495 10494 10493 10492 10490 10488 10487 10485 10484 10482
10392 10391 10390 10390 10390 10391 10392 10394 10395 10397 10399 10400 10401 10402 10404 10408 10411 10414 10416 10419 10422 10424 10426 10428 10431 10433 10436 10438 10441 10444 10447 10450 10452 10455 10457 10460 10462 10463 10466 10468 10469 10470 10472 10473 10475 10477 10478 10480 10481 10483 10484 10485 10486 10486 10487 10488 10488 10487 10488 10488 10487 10487 10486 10484 10484 10483 10484 10485 10486 10487 10487 10487 10487 10487 10486 10484 10483 10482 10481 10479 10478 10476 10475 10473 10472
10379 10379 10378 10378 10378 10378 10379 10380 10381 10382 10384 10386 10388 10388 10390 10394 10397 10400 10402 10405 10408 10411 10414 10416 10418 10421 10423 10426 10429 10431 10435 10438 10440 10443 10446 10448 10450 10452 10455 10457 10459 10460 10462 10463 10465 10467 10468 10470 10471 10473 10475 10476 10477 10477 10478 10478 10478 10478 10478 10477 10477 10477 10477 10477 10476 10475 10475 10474 10475 10476 10476 10477 10477 10477 10475 10474 10473 10472 10471 10469 10468 10466 10465 10463 10462
10367 10367 10366 10365 10365 10365 10366 10367 10367 10368 10369 10371 10374 10376 10377 10379 10382 10385 10388 10391 10394 10397 10400 10403 10405 10408 10411 10414 10416 10419 10422 10425 10428 10430 10433 10436 10439 10441 10444 10446 10448 10450 10452 10454 10456 10457 10458 10459 10461 10462 10464 10466 10467 10469 10469 10469 10469 10468 10468 10467 10467 10468 10468 10468 10468 10468 10467 10466 10465 10465 10465 10465 10466 10466 10466 10464 10462 10461 10461 10460 10458 10457 10455 10453 10451
10356 10355 10354 10354 10353 10352 10353 10353 10354 10355 10356 10357 10359 10362 10364 10365 10368 10370 10373 10376 10379 10382 10385 10388 10391 10395 10398 10401 10404 10407 10410 10412 10415 10417 10421 10424 10427 10429 10432 10434 10437 10439 10441 10443 10445 10446 10447 10448 10450 10451 10453 10455 10457 10458 10459 10459 10459 10458 10457 10457 10457 10459 10459 10459 10458 10458 10458 10457 10457 10456 10456 10455 10455 10456 10456 10455 10454 10452 10450 10449 10447 10446 10444 10443 10441
10346 10345 10344 10343 10342 10341 10341 10341 10341 10342 10343 10344 10345 10347 10349 10352 10354 10356 10358 10360 10363 10367 10370 10373 10377 10380 10383 10387 10390 10394 10397 10399 10402 10405 10407 10411 10414 10417 10420 10422 10425 10427 10430 10432 10434 10436 10437 10438 10439 10440 10442 10444 10445 10446 10447 10448 10448 10448 10447 10447 10448 10449 10449 10449 10448 10447 10447 10447 10447 10447 10447 10447 10446 10445 10445 10445 10444 10443 10441 10440 10438 10436 10434 10433 10431
10337 10336 10334 10334 10333 10332 10331 10331 10330 10331 10331 10332 10333 10334 10336 10338 10340 10342 10344 10346 10349 10352 10355 10358 10362 10365 10368 10372 10376 10379 10383 10386 10389 10392 10395 10398 10400 10403 10406 10409 10412 10415 10417 10420 10422 10424 10426 10427 10428 10429 10431 10432 10433 10434 10435 10436 10436 10436 10436 10437 10437 10438 10438 10438 10437 10437 10436 10436 10436 10436 10436 10436 10436 10435 10434 10433 10432 10431 10430 10429 10427 10426 10424 10423 10421
10328 10326 10325 10324 10323 10323 10322 10322 10321 10321 10321 10321 10322 10323 10324 10325 10327 10329 10331 10332 10335 10337 10340 10343 10347 10350 10353 10357 10361 10365 10369 10372 10375 10378 10382 10385 10388 10390 10393 10396 10399 10402 10405 10408 10410 10412 10414 10416 10417 10418 10419 10420 10421 10423 10424 10424 10424 10425 10425 10425 10426 10426 10426 10426 10426 10426 10426 10426 10425 10425 10424 10424 10424 10423 10423 10422 10421 10420 10419 10417 10416 10414 10413 10411 10409
10319 10317 10316 10314 10313 10313 10312 10312 10311 10311 10311 10311 10311 10312 10312 10313 10315 10317 10318 10320 10322 10324 10326 10329 10332 10335 10339 10343 10346 10350 10354 10357 10361 10364 10368 10371 10375 10377 10380 10383 10386 10389 10392 10395 10397 10399 10402 10404 10405 10407 10408 10409 10410 10411 10412 10412 10413 10413 10413 10414 10414 10414 10414 10414 10415 10415 10415 10415 10415 10414 10413 10413 10412 10411 10410 10410 10409 10408 10407 10406 10404 10403 10401 10399 10397
10310 10308 10307 10305 10304 10302 10302 10301 10301 10301 10301 10301 10301 10301 10302 10303 10303 10305 10306 10308 10310 10312 10314 10316 10319 10321 10324 10329 10332 10335 10339 10342 10346 10350 10354 10358 10361 10364 10368 10371 10374 10376 10379 10382 10384 10386 10389 10391 10393 10395 10397 10398 10399 10399 10400 10401 10401 10401 10401 10402 10402 10402 10402 10403 10403 10403 10403 10403 10403 10402 10402 10401 10401 10400 10399 10398 10396 10395 10394 10393 10392 10391 10389 10388 10386
10303 10301 10299 10297 10295 10294 10292 10291 10291 10291 10291 10291 10291 10291 10291 10292 10293 10293 10295 10296 10298 10300 10302 10304 10306 10308 10311 10314 10318 10322 10325 10328 10332 10335 10339 10343 10347 10351 10354 10357 10360 10363 10366 10369 10371 10373 10376 10378 10381 10383 10385 10386 10388 10388 10388 10389 10389 10389 10390 10390 10390 10390 10390 10391 10391 10391 10391 10391 10390 10390 10390 10389 10389 10388 10386 10385 10384 10383 10382 10381 10380 10379 10377 10376 10374
10296 10293 10291 10289 10287 10285 10284 10282 10281 10281 10281 10281 10281 10280 10281 10282 10282 10283 10284 10285 10287 10288 10290 10293 10295 10296 10298 10301 10305 10308 10312 10315 10318 10321 10325 10329 10333 10336 10340 10343 10346 10349 10353 10356 10358 10360 10362 10365 10367 10370 10372 10374 10375 10376 10377 10377 10377 10377 10378 10378 10378 10378 10378 10378 10378 10378 10378 10378 10378 10378 10378 10377 10377 10376 10374 10373 10372 10371 10370 10368 10367 10366 10365 10364 10362
10289 10287 10284 10282 10279 10277 10276 10274 10273 10272 10271 10272 10272 10271 10270 10271 10272 10273 10273 10274 10276 10277 10279 10281 10283 10285 10287 10289 10291 10294 10298 10302 10305 10308 10312 10315 10318 10322 10325 10328 10332 10335 10338 10342 10345 10347 10349 10351 10354 10357 10359 10361 10362 10364 10365 10366 10366 10366 10366 10366 10366 10366 10366 10366 10366 10366 10366 10366 10366 10366 10366 10365 10364 10364 10363 10362 10361 10359 10358 10357 10355 10354 10353 10351 10350
10282 10279 10277 10274 10272 10270 10268 10266 10265 10264 10263 10263 10263 10263 10262 10261 10262 10263 10264 10264 10265 10266 10268 10270 10272 10274 10275 10277 10279 10281 10285 10289 10292 10296 10299 10301 10304 10308 10311 10314 10317 10321 10324 10328 10331 10333 10335 10338 10341 10343 10345 10347 10349 10351 10352 10353 10354 10355 10355 10355 10354 10354 10354 10354 10354 10354 10354 10354 10354 10354 10353 10353 10352 10352 10351 10350 10349 10348 10346 10345 10344 10342 10341 10339 10337
10275 10272 10270 10267 10264 10262 10260 10258 10257 10256 10255 10254 10254 10254 10254 10252 10252 10253 10254 10254 10255 10256 10257 10259 10261 10262 10264 10266 10268 10269 10272 10275 10280 10283 10286 10288 10291 10294 10297 10300 10304 10307 10310 10313 10316 10319 10321 10324 10327 10330 10332 10334 10335 10337 10338 10340 10341 10342 10343 10343 10343 10343 10342 10342 10342 10342 10342 10342 10341 10341 10341 10340 10340 10339 10339 10338 10337 10336 10335 10333 10332 10331 10329 10327 10325
10270 10266 10264 10261 10258 10255 10252 10250 10249 10247 10247 10246 10245 10245 10245 10244 10243 10243 10244 10244 10245 10246 10247 10248 10250 10251 10253 10255 10256 10258 10260 10263 10266 10270 10273 10276 10279 10281 10284 10287 10290 10293 10296 10299 10302 10304 10307 10310 10313 10316 10318 10320 10322 10323 10325 10326 10327 10329 10329 10330 10331 10331 10331 10331 10330 10330 10330 10330 10329 10329 10328 10328 10327 10327 10326 10326 10325 10324 10323 10322 10320 10318 10317 10315 10313
10266 10262 10258 10255 10252 10249 10246 10243 10241 10239 10238 10237 10236 10236 10236 10235 10235 10235 10235 10235 10235 10236 10237 10238 10239 10240 10242 10244 10245 10247 10249 10250 10253 10257 10260 10263 10266 10268 10271 10274 10276 10279 10282 10285 10287 10290 10293 10296 10299 10301 10304 10306 10308 10310 10311 10312 10314 10315 10316 10317 10317 10318 10318 10318 10318 10318 10318 10318 10317 10317 10316 10315 10315 10315 10314 10313 10313 10312 10311 10309 10308 10306 10304 10303 10301
10262 10258 10254 10250 10247 10244 10240 10237 10234 10232 10230 10229 10228 10227 10227 10227 10227 10227 10227 10226 10226 10226 10227 10228 10228 10229 10231 10233 10234 10236 10238 10239 10241 10244 10247 10250 10253 10255 10258 10261 10264 10266 10268 10271 10273 10276 10279 10282 10285 10288 10290 10292 10294 10296 10297 10298 10300 10301 10302 10303 10304 10304 10304 10305 10305 10305 10305 10305 10304 10304 10303 10303 10303 10303 10302 10301 10301 10300 10298 10297 10295 10294 10292 10290 10288
10258 10254 10250 10246 10242 10239 10236 10232 10229 10226 10224 10222 10221 10220 10219 10218 10218 10219 10219 10218 10217 10217 10218 10218 10218 10219 10220 10222 10223 10225 10227 10228 10230 10232 10234 10237 10240 10243 10245 10248 10250 10253 10255 10257 10260 10263 10265 10268 10271 10274 10276 10278 10280 10281 10283 10284 10286 10287 10288 10289 10290 10290 10291 10291 10291 10292 10292 10291 10291 10291 10291 10290 10290 10290 10290 10289 10288 10287 10285 10284 10283 10281 10279 10277 10276
10254 10250 10246 10242 10238 10234 10231 10228 10224 10221 10218 10216 10214 10213 10212 10211 10210 10210 10210 10209 10208 10208 10209 10209 10209 10209 10210 10211 10212 10214 10215 10217 10219 10221 10223 10225 10227 10230 10233 10235 10237 10240 10242 10244 10247 10249 10252 10254 10257 10260 10262 10264 10266 10267 10269 10270 10272 10273 10274 10275 10276 10276 10277 10277 10278 10278 10278 10278 10278 10277 10278 10278 10278 10277 10277 10276 10275 10274 10272 10271 10270 10268 10267 10265 10263
10250 10245 10241 10237 10233 10229 10226 10223 10219 10216 10213 10210 10208 10206 10205 10203 10203 10202 10202 10200 10200 10200 10200 10200 10200 10200 10201 10202 10203 10204 10205 10206 10208 10209 10211 10213 10215 10218 10220 10223 10225 10227 10230 10232 10234 10237 10239 10241 10243 10246 10248 10250 10252 10253 10255 10257 10258 10259 10260 10261 10262 10263 10263 10264 10264 10264 10264 10264 10264 10264 10265 10265 10265 10264 10264 10263 10262 10261 10260 10258 10257 10255 10254 10252 10251
10245 10241 10237 10233 10229 10225 10221 10218 10214 10211 10208 10206 10203 10200 10198 10196 10195 10195 10194 10193 10191 10191 10192 10192 10192 10192 10192 10192 10193 10194 10195 10196 10197 10199 10200 10202 10204 10206 10208 10211 10213 10215 10217 10219 10222 10224 10226 10228 10230 10232 10234 10236 10238 10240 10241 10243 10244 10246 10246 10247 10248 10249 10250 10250 10250 10251 10251 10251 10251 10251 10252 10252 10251 10251 10250 10250 10249 10248 10247 10245 10244 10242 10241 10239 10238
10241 10237 10233 10230 10226 10222 10218 10214 10210 10206 10203 10200 10198 10195 10193 10190 10189 10188 10187 10186 10184 10183 10183 10184 10184 10184 10184 10184 10184 10185 10185 10186 10187 10189 10190 10191 10193 10195 10197 10199 10201 10204 10206 10207 10209 10211 10213 10215 10217 10219 10221 10223 10225 10227 10228 10230 10231 10232 10233 10234 10235 10236 10236 10237 10237 10237 10238 10238 10238 10238 10238 10238 10238 10238 10237 10237 10236 10235 10234 10232 10231 10229 10228 10226 10224
10236 10233 10229 10225 10222 10218 10214 10210 10206 10202 10199 10195 10193 10190 10188 10185 10183 10181 10180 10179 10178 10177 10176 10176 10176 10177 10176 10175 10175 10176 10176 10177 10178 10179 10180 10182 10183 10184 10186 10187 10189 10192 10194 10196 10197 10199 10201 10202 10204 10206 10208 10210 10212 10213 10215 10216 10217 10218 10219 10220 10221 10222 10222 10223 10223 10224 10224 10224 10225 10225 10225 10225 10225 10224 10224 10223 10222 10221 10220 10219 10218 10216 10215 10213 10211
10232 10229 10225 10221 10217 10214 10210 10207 10203 10199 10195 10191 10188 10185 10183 10181 10178 10176 10175 10173 10172 10170 10169 10169 10169 10169 10169 10168 10167 10167 10168 10168 10169 10169 10171 10172 10173 10174 10175 10177 10178 10180 10182 10184 10185 10187 10189 10190 10192 10194 10195 10197 10199 10200 10202 10203 10204 10205 10206 10207 10208 10208 10209 10209 10210 10210 10211 10211 10211 10211 10211 10211 10211 10211 10210 10209 10209 10208 10207 10206 10205 10204 10202 10200 10199